LAO126 RJFT-VLVT

Flight info

Callsign LAO126
Flight time 4h 47m
Altitude 34000
Route KUE V40 FUE A593 PUD A599 NXD W131 AKDIM A470 DUBGO W134 ELNEX A599 GYA R474 NOB B465 MC R474 NOHET VALEE
Aircraft A320/M-SDE3FGHIRWY/LB1

Departure

Time 2026-05-09 04:32
Airport Kumamoto Airport (RJFT)

Arrival

Time 2026-05-09 09:20
Airport Wattay International Airport (VLVT)
Time Latitude Longitude Altitude Speed Heading
2026-05-09 04:18 32.83603 130.86030 644 ft 0 kts 154°
2026-05-09 04:25 32.83605 130.86029 644 ft 2 kts 154°
2026-05-09 04:25 32.83629 130.86016 642 ft 4 kts 154°
2026-05-09 04:26 32.83653 130.86002 643 ft 4 kts 154°
2026-05-09 04:26 32.83677 130.85988 643 ft 4 kts 154°
2026-05-09 04:26 32.83690 130.85981 644 ft 3 kts 154°
2026-05-09 04:26 32.83713 130.85953 642 ft 4 kts 104°
2026-05-09 04:27 32.83715 130.85933 642 ft 4 kts 85°
2026-05-09 04:27 32.83711 130.85909 642 ft 0 kts 64°
2026-05-09 04:28 32.83712 130.85912 642 ft 3 kts 64°
2026-05-09 04:28 32.83742 130.85986 643 ft 19 kts 64°
2026-05-09 04:29 32.83808 130.86149 645 ft 22 kts 65°
2026-05-09 04:29 32.83865 130.86294 647 ft 17 kts 64°
2026-05-09 04:29 32.83910 130.86406 648 ft 13 kts 64°
2026-05-09 04:29 32.83945 130.86493 650 ft 10 kts 64°
2026-05-09 04:30 32.83978 130.86575 651 ft 15 kts 64°
2026-05-09 04:30 32.84031 130.86709 653 ft 17 kts 65°
2026-05-09 04:30 32.84075 130.86822 654 ft 13 kts 65°
2026-05-09 04:30 32.84112 130.86911 655 ft 11 kts 63°
2026-05-09 04:31 32.84170 130.87000 657 ft 14 kts 21°
2026-05-09 04:31 32.84253 130.86974 656 ft 12 kts 334°
2026-05-09 04:31 32.84295 130.86907 656 ft 11 kts 254°
2026-05-09 04:31 32.84260 130.86823 659 ft 14 kts 245°
2026-05-09 04:32 32.84143 130.86531 654 ft 74 kts 244°
2026-05-09 04:32 32.83829 130.85749 642 ft 133 kts 244°
2026-05-09 04:32 32.83373 130.84598 723 ft 170 kts 245°
2026-05-09 04:32 32.82871 130.83370 1493 ft 161 kts 244°
2026-05-09 04:33 32.82357 130.82174 2135 ft 165 kts 243°
2026-05-09 04:33 32.81818 130.80955 2634 ft 172 kts 243°
2026-05-09 04:33 32.81226 130.79614 2808 ft 194 kts 243°
2026-05-09 04:33 32.80474 130.78179 2998 ft 217 kts 224°
2026-05-09 04:34 32.79060 130.77368 3193 ft 242 kts 185°
2026-05-09 04:34 32.77315 130.77594 3505 ft 264 kts 169°
2026-05-09 04:34 32.75488 130.78060 4182 ft 270 kts 167°
2026-05-09 04:34 32.73639 130.78550 4936 ft 275 kts 167°
2026-05-09 04:35 32.71759 130.79036 5643 ft 279 kts 160°
2026-05-09 04:35 32.70138 130.80296 6320 ft 283 kts 129°
2026-05-09 04:35 32.69166 130.82314 6978 ft 285 kts 104°
2026-05-09 04:35 32.68974 130.84637 7645 ft 285 kts 80°
2026-05-09 04:36 32.69600 130.86848 8316 ft 284 kts 55°
2026-05-09 04:36 32.70937 130.88540 8992 ft 283 kts 30°
2026-05-09 04:36 32.72740 130.89406 9687 ft 280 kts
2026-05-09 04:36 32.74661 130.89303 10364 ft 278 kts 341°
2026-05-09 04:37 32.76458 130.88394 10744 ft 291 kts 332°
2026-05-09 04:37 32.78341 130.87276 10879 ft 313 kts 331°
2026-05-09 04:37 32.80231 130.85827 11009 ft 334 kts 319°
2026-05-09 04:37 32.81858 130.83817 11325 ft 348 kts 307°
2026-05-09 04:38 32.83122 130.81303 11901 ft 353 kts 294°
2026-05-09 04:38 32.83865 130.78549 12532 ft 357 kts 282°
2026-05-09 04:38 32.84156 130.75610 13189 ft 360 kts 277°
2026-05-09 04:38 32.84391 130.72641 13852 ft 362 kts 277°
2026-05-09 04:39 32.84629 130.69656 14436 ft 364 kts 277°
2026-05-09 04:39 32.84872 130.66610 15007 ft 366 kts 277°
2026-05-09 04:39 32.85114 130.63596 15579 ft 367 kts 277°
2026-05-09 04:39 32.85350 130.60601 16144 ft 369 kts 277°
2026-05-09 04:40 32.85583 130.57559 16730 ft 371 kts 277°
2026-05-09 04:40 32.85805 130.54499 17294 ft 373 kts 276°
2026-05-09 04:40 32.86021 130.51418 17864 ft 375 kts 276°
2026-05-09 04:40 32.86235 130.48319 18410 ft 377 kts 276°
2026-05-09 04:41 32.86301 130.45199 18865 ft 381 kts 266°
2026-05-09 04:41 32.85968 130.42064 19342 ft 382 kts 265°
2026-05-09 04:41 32.85617 130.38928 19830 ft 382 kts 264°
2026-05-09 04:41 32.85261 130.35795 20304 ft 383 kts 264°
2026-05-09 04:42 32.84901 130.32649 20769 ft 384 kts 264°
2026-05-09 04:42 32.84540 130.29502 21200 ft 385 kts 264°
2026-05-09 04:42 32.84177 130.26339 21604 ft 386 kts 264°
2026-05-09 04:42 32.83815 130.23168 22046 ft 387 kts 264°
2026-05-09 04:43 32.83454 130.20035 22467 ft 388 kts 263°
2026-05-09 04:43 32.83088 130.16856 22886 ft 388 kts 263°
2026-05-09 04:43 32.82721 130.13669 23283 ft 389 kts 263°
2026-05-09 04:43 32.82348 130.10477 23661 ft 390 kts 263°
2026-05-09 04:44 32.81976 130.07279 23989 ft 391 kts 263°
2026-05-09 04:44 32.81604 130.04069 24304 ft 392 kts 263°
2026-05-09 04:44 32.81231 130.00858 24595 ft 393 kts 263°
2026-05-09 04:44 32.80853 129.97636 24880 ft 394 kts 263°
2026-05-09 04:45 32.80474 129.94403 25163 ft 395 kts 263°
2026-05-09 04:45 32.80096 129.91163 25433 ft 396 kts 263°
2026-05-09 04:45 32.79715 129.87911 25677 ft 398 kts 262°
2026-05-09 04:45 32.79329 129.84643 25916 ft 400 kts 262°
2026-05-09 04:46 32.78940 129.81362 26149 ft 401 kts 262°
2026-05-09 04:46 32.78549 129.78078 26400 ft 403 kts 262°
2026-05-09 04:46 32.78159 129.74777 26631 ft 404 kts 262°
2026-05-09 04:46 32.77769 129.71471 26860 ft 405 kts 262°
2026-05-09 04:47 32.77371 129.68148 27081 ft 406 kts 262°
2026-05-09 04:47 32.76970 129.64824 27301 ft 407 kts 262°
2026-05-09 04:47 32.76571 129.61499 27507 ft 408 kts 262°
2026-05-09 04:47 32.76176 129.58203 27703 ft 408 kts 262°
2026-05-09 04:48 32.75769 129.54821 27959 ft 408 kts 262°
2026-05-09 04:48 32.75368 129.51491 28248 ft 406 kts 262°
2026-05-09 04:48 32.74967 129.48174 28538 ft 405 kts 262°
2026-05-09 04:48 32.74564 129.44872 28752 ft 405 kts 262°
2026-05-09 04:49 32.74166 129.41599 28982 ft 405 kts 262°
2026-05-09 04:49 32.73764 129.38285 29249 ft 404 kts 261°
2026-05-09 04:49 32.73364 129.34988 29544 ft 403 kts 262°
2026-05-09 04:49 32.72964 129.31701 29869 ft 401 kts 261°
2026-05-09 04:50 32.72564 129.28434 30194 ft 399 kts 261°
2026-05-09 04:50 32.72164 129.25185 30442 ft 397 kts 261°
2026-05-09 04:50 32.71762 129.21942 30681 ft 396 kts 261°
2026-05-09 04:50 32.71362 129.18712 30910 ft 395 kts 261°
2026-05-09 04:51 32.70962 129.15482 31133 ft 395 kts 261°
2026-05-09 04:51 32.70564 129.12260 31362 ft 394 kts 261°
2026-05-09 04:51 32.70168 129.09049 31612 ft 392 kts 262°
2026-05-09 04:51 32.69773 129.05847 31856 ft 391 kts 261°
2026-05-09 04:52 32.69376 129.02645 31978 ft 393 kts 261°
2026-05-09 04:52 32.68975 128.99430 32124 ft 394 kts 261°
2026-05-09 04:52 32.68569 128.96207 32318 ft 394 kts 261°
2026-05-09 04:52 32.68163 128.92988 32532 ft 394 kts 261°
2026-05-09 04:53 32.67757 128.89774 32750 ft 393 kts 261°
2026-05-09 04:53 32.67351 128.86567 32991 ft 392 kts 262°
2026-05-09 04:53 32.66947 128.83378 33229 ft 391 kts 261°
2026-05-09 04:53 32.66354 128.80239 33460 ft 390 kts 257°
2026-05-09 04:54 32.65696 128.77113 33662 ft 389 kts 257°
2026-05-09 04:54 32.65041 128.74000 33873 ft 389 kts 257°
2026-05-09 04:54 32.64389 128.70894 34098 ft 388 kts 257°
2026-05-09 04:55 32.63097 128.64706 34152 ft 389 kts 257°
2026-05-09 04:55 32.61791 128.58459 34167 ft 391 kts 257°
2026-05-09 04:56 32.60470 128.52205 34169 ft 391 kts 257°
2026-05-09 04:56 32.59143 128.45951 34169 ft 391 kts 257°
2026-05-09 04:57 32.57814 128.39701 34158 ft 391 kts 257°
2026-05-09 04:57 32.56488 128.33454 34157 ft 391 kts 257°
2026-05-09 04:58 32.55159 128.27208 34129 ft 391 kts 256°
2026-05-09 04:58 32.53812 128.20924 34136 ft 394 kts 256°
2026-05-09 04:59 32.52465 128.14629 34160 ft 394 kts 257°
2026-05-09 04:59 32.51114 128.08329 34161 ft 395 kts 257°
2026-05-09 05:00 32.49758 128.02031 34160 ft 395 kts 257°
2026-05-09 05:00 32.48396 127.95727 34163 ft 395 kts 257°
2026-05-09 05:01 32.47032 127.89427 34184 ft 394 kts 257°
2026-05-09 05:01 32.45676 127.83189 34182 ft 393 kts 257°
2026-05-09 05:02 32.44311 127.76919 34183 ft 393 kts 257°
2026-05-09 05:02 32.42946 127.70653 34196 ft 393 kts 258°
2026-05-09 05:03 32.41577 127.64389 34197 ft 392 kts 257°
2026-05-09 05:03 32.40200 127.58142 34194 ft 392 kts 257°
2026-05-09 05:04 32.38818 127.51910 34173 ft 392 kts 257°
2026-05-09 05:04 32.37421 127.45665 34182 ft 393 kts 257°
2026-05-09 05:05 32.36025 127.39420 34186 ft 393 kts 257°
2026-05-09 05:05 32.34620 127.33178 34180 ft 393 kts 257°
2026-05-09 05:06 32.33209 127.26936 34184 ft 393 kts 257°
2026-05-09 05:06 32.31792 127.20697 34200 ft 393 kts 257°
2026-05-09 05:07 32.30387 127.14468 34159 ft 392 kts 257°
2026-05-09 05:07 32.28974 127.08220 34154 ft 394 kts 257°
2026-05-09 05:08 32.27557 127.01991 34156 ft 395 kts 257°
2026-05-09 05:08 32.26175 126.95703 34175 ft 396 kts 258°
2026-05-09 05:09 32.24803 126.89409 34179 ft 395 kts 258°
2026-05-09 05:09 32.23421 126.83119 34185 ft 395 kts 258°
2026-05-09 05:10 32.22031 126.76839 34187 ft 395 kts 257°
2026-05-09 05:10 32.20626 126.70552 34172 ft 397 kts 257°
2026-05-09 05:11 32.19224 126.64246 34174 ft 397 kts 257°
2026-05-09 05:11 32.17860 126.57932 34172 ft 397 kts 258°
2026-05-09 05:12 32.16507 126.51611 34179 ft 397 kts 258°
2026-05-09 05:12 32.15143 126.45294 34185 ft 397 kts 258°
2026-05-09 05:13 32.13993 126.40001 34187 ft 397 kts 258°
2026-05-09 05:13 32.12616 126.33688 34156 ft 398 kts 257°
2026-05-09 05:14 32.11229 126.27349 34157 ft 400 kts 257°
2026-05-09 05:14 32.09847 126.21031 34175 ft 400 kts 257°
2026-05-09 05:15 32.08453 126.14669 34181 ft 401 kts 257°
2026-05-09 05:15 32.07056 126.08309 34185 ft 400 kts 257°
2026-05-09 05:16 32.05666 126.01954 34189 ft 400 kts 257°
2026-05-09 05:16 32.04299 125.95596 34160 ft 400 kts 257°
2026-05-09 05:17 32.02934 125.89228 34160 ft 402 kts 257°
2026-05-09 05:17 32.01562 125.82833 34283 ft 404 kts 257°
2026-05-09 05:18 32.00174 125.76423 34285 ft 404 kts 257°
2026-05-09 05:18 31.98761 125.70023 34287 ft 403 kts 257°
2026-05-09 05:19 31.97336 125.63639 34285 ft 403 kts 257°
2026-05-09 05:19 31.95908 125.57248 34284 ft 403 kts 257°
2026-05-09 05:20 31.94487 125.50895 34260 ft 404 kts 257°
2026-05-09 05:20 31.93054 125.44491 34274 ft 405 kts 257°
2026-05-09 05:21 31.91623 125.38085 34281 ft 405 kts 257°
2026-05-09 05:21 31.90185 125.31671 34285 ft 405 kts 257°
2026-05-09 05:22 31.88740 125.25261 34286 ft 405 kts 257°
2026-05-09 05:22 31.87284 125.18851 34299 ft 405 kts 257°
2026-05-09 05:23 31.85830 125.12439 34280 ft 405 kts 257°
2026-05-09 05:23 31.84379 125.06024 34279 ft 406 kts 257°
2026-05-09 05:24 31.82916 124.99602 34281 ft 407 kts 257°
2026-05-09 05:24 31.81493 124.93166 34288 ft 406 kts 257°
2026-05-09 05:25 31.80123 124.86717 34292 ft 406 kts 257°
2026-05-09 05:25 31.78044 124.77099 34306 ft 406 kts 257°
2026-05-09 05:26 31.76634 124.70668 34292 ft 406 kts 257°
2026-05-09 05:26 31.75235 124.64234 34292 ft 406 kts 257°
2026-05-09 05:27 31.73830 124.57805 34295 ft 406 kts 257°
2026-05-09 05:27 31.72421 124.51374 34292 ft 407 kts 257°
2026-05-09 05:28 31.71002 124.44941 34296 ft 406 kts 257°
2026-05-09 05:28 31.69579 124.38526 34298 ft 406 kts 257°
2026-05-09 05:29 31.68157 124.32108 34301 ft 406 kts 257°
2026-05-09 05:29 31.66738 124.25696 34278 ft 406 kts 257°
2026-05-09 05:30 31.65324 124.19321 34289 ft 406 kts 257°
2026-05-09 05:30 31.63889 124.12904 34295 ft 406 kts 257°
2026-05-09 05:31 31.62456 124.06480 34298 ft 406 kts 258°
2026-05-09 05:31 31.61018 124.00059 34302 ft 406 kts 257°
2026-05-09 05:32 31.59599 123.93648 34308 ft 406 kts 258°
2026-05-09 05:32 31.58217 123.87278 34307 ft 405 kts 258°
2026-05-09 05:33 31.56822 123.80876 34306 ft 405 kts 258°
2026-05-09 05:33 31.55412 123.74482 34303 ft 404 kts 258°
2026-05-09 05:34 31.54004 123.68101 34307 ft 404 kts 258°
2026-05-09 05:34 31.53298 123.64901 34429 ft 404 kts 258°
2026-05-09 05:34 31.52593 123.61715 34646 ft 402 kts 258°
2026-05-09 05:35 31.51891 123.58549 34866 ft 401 kts 258°
2026-05-09 05:35 31.51194 123.55397 35085 ft 399 kts 258°
2026-05-09 05:35 31.50499 123.52256 35284 ft 397 kts 258°
2026-05-09 05:35 31.49812 123.49127 35473 ft 396 kts 259°
2026-05-09 05:36 31.49174 123.45995 35661 ft 394 kts 260°
2026-05-09 05:36 31.48580 123.42872 35842 ft 392 kts 261°
2026-05-09 05:36 31.48010 123.39753 35996 ft 391 kts 261°
2026-05-09 05:36 31.47447 123.36643 36126 ft 390 kts 261°
2026-05-09 05:37 31.46879 123.33543 36270 ft 389 kts 261°
2026-05-09 05:37 31.46308 123.30487 36298 ft 389 kts 261°
2026-05-09 05:37 31.45128 123.24303 36298 ft 388 kts 261°
2026-05-09 05:38 31.43945 123.18137 36299 ft 388 kts 261°
2026-05-09 05:38 31.42757 123.11972 36297 ft 387 kts 261°
2026-05-09 05:39 31.41568 123.05819 36298 ft 387 kts 261°
2026-05-09 05:39 31.40382 122.99664 36296 ft 388 kts 261°
2026-05-09 05:40 31.39196 122.93510 36297 ft 388 kts 261°
2026-05-09 05:40 31.38005 122.87353 36278 ft 388 kts 261°
2026-05-09 05:41 31.36804 122.81203 36286 ft 388 kts 261°
2026-05-09 05:41 31.35607 122.75052 36294 ft 388 kts 261°
2026-05-09 05:42 31.34441 122.68934 36300 ft 388 kts 261°
2026-05-09 05:42 31.33281 122.62777 36310 ft 388 kts 261°
2026-05-09 05:43 31.32106 122.56617 36317 ft 388 kts 261°
2026-05-09 05:43 31.30925 122.50467 36314 ft 387 kts 261°
2026-05-09 05:44 31.29734 122.44329 36304 ft 387 kts 261°
2026-05-09 05:44 31.28565 122.38189 36272 ft 386 kts 261°
2026-05-09 05:45 31.27419 122.32050 36286 ft 387 kts 262°
2026-05-09 05:45 31.26268 122.25915 36292 ft 387 kts 261°
2026-05-09 05:46 31.25103 122.19777 36299 ft 386 kts 261°
2026-05-09 05:46 31.23937 122.13651 36297 ft 386 kts 261°
2026-05-09 05:47 31.22771 122.07523 36295 ft 386 kts 261°
2026-05-09 05:47 31.21603 122.01397 36294 ft 386 kts 261°
2026-05-09 05:48 31.20431 121.95275 36293 ft 386 kts 261°
2026-05-09 05:48 31.19253 121.89160 36270 ft 386 kts 261°
2026-05-09 05:49 31.18073 121.83048 36262 ft 386 kts 261°
2026-05-09 05:49 31.17006 121.76916 36270 ft 383 kts 266°
2026-05-09 05:50 31.16350 121.70785 36274 ft 383 kts 266°
2026-05-09 05:50 31.15680 121.64604 36277 ft 383 kts 266°
2026-05-09 05:51 31.15006 121.58428 36277 ft 383 kts 266°
2026-05-09 05:51 31.14332 121.52260 36278 ft 383 kts 266°
2026-05-09 05:52 31.13654 121.46091 36284 ft 383 kts 266°
2026-05-09 05:52 31.12972 121.39926 36285 ft 383 kts 266°
2026-05-09 05:53 31.12216 121.33809 36282 ft 385 kts 260°
2026-05-09 05:53 31.10673 121.27811 36248 ft 387 kts 258°
2026-05-09 05:54 31.09095 121.21791 36266 ft 387 kts 258°
2026-05-09 05:54 31.07527 121.15778 36267 ft 387 kts 258°
2026-05-09 05:55 31.06008 121.09758 36268 ft 387 kts 259°
2026-05-09 05:55 31.04559 121.03714 36264 ft 386 kts 259°
2026-05-09 05:56 31.03107 120.97678 36260 ft 386 kts 259°
2026-05-09 05:56 31.01634 120.91654 36266 ft 386 kts 259°
2026-05-09 05:57 31.00153 120.85633 36224 ft 386 kts 258°
2026-05-09 05:57 30.98924 120.80628 36232 ft 386 kts 258°
2026-05-09 05:58 30.97439 120.74611 36244 ft 386 kts 258°
2026-05-09 05:58 30.95963 120.68598 36247 ft 386 kts 259°
2026-05-09 05:59 30.94488 120.62581 36250 ft 386 kts 259°
2026-05-09 05:59 30.93014 120.56566 36247 ft 386 kts 259°
2026-05-09 06:00 30.91537 120.50556 36246 ft 386 kts 258°
2026-05-09 06:00 30.89644 120.44680 36247 ft 395 kts 245°
2026-05-09 06:01 30.85864 120.39867 36219 ft 418 kts 225°
2026-05-09 06:01 30.81136 120.35975 36225 ft 419 kts 224°
2026-05-09 06:02 30.76379 120.32052 36232 ft 419 kts 224°
2026-05-09 06:02 30.71616 120.28134 36232 ft 419 kts 224°
2026-05-09 06:03 30.66849 120.24223 36201 ft 419 kts 224°
2026-05-09 06:03 30.62085 120.20316 36222 ft 419 kts 224°
2026-05-09 06:04 30.57311 120.16416 36240 ft 420 kts 224°
2026-05-09 06:04 30.52535 120.12516 36245 ft 420 kts 224°
2026-05-09 06:05 30.47763 120.08616 36254 ft 420 kts 224°
2026-05-09 06:05 30.42976 120.04794 36229 ft 425 kts 220°
2026-05-09 06:06 30.37850 120.01373 36242 ft 425 kts 220°
2026-05-09 06:06 30.32721 119.97965 36246 ft 425 kts 220°
2026-05-09 06:07 30.27599 119.94553 36248 ft 424 kts 220°
2026-05-09 06:07 30.22481 119.91145 36246 ft 424 kts 220°
2026-05-09 06:08 30.17369 119.87753 36243 ft 424 kts 220°
2026-05-09 06:08 30.12255 119.84360 36243 ft 424 kts 220°
2026-05-09 06:09 30.07137 119.80978 36247 ft 424 kts 220°
2026-05-09 06:09 30.02042 119.77596 36230 ft 422 kts 221°
2026-05-09 06:10 29.96978 119.74181 36234 ft 421 kts 221°
2026-05-09 06:10 29.91925 119.70774 36234 ft 420 kts 221°
2026-05-09 06:11 29.86913 119.67401 36235 ft 420 kts 221°
2026-05-09 06:11 29.81966 119.63872 36199 ft 415 kts 225°
2026-05-09 06:12 29.77224 119.60099 36243 ft 414 kts 226°
2026-05-09 06:12 29.72511 119.56302 36247 ft 413 kts 225°
2026-05-09 06:13 29.67765 119.52567 36253 ft 413 kts 225°
2026-05-09 06:13 29.63105 119.48746 36250 ft 403 kts 232°
2026-05-09 06:14 29.59348 119.44131 36225 ft 394 kts 238°
2026-05-09 06:14 29.55676 119.39456 36239 ft 394 kts 237°
2026-05-09 06:15 29.52027 119.34815 36248 ft 394 kts 238°
2026-05-09 06:15 29.48358 119.30145 36252 ft 393 kts 238°
2026-05-09 06:16 29.44694 119.25486 36251 ft 393 kts 237°
2026-05-09 06:16 29.41036 119.20847 36231 ft 392 kts 238°
2026-05-09 06:17 29.37375 119.16204 36244 ft 392 kts 238°
2026-05-09 06:17 29.33722 119.11571 36244 ft 391 kts 237°
2026-05-09 06:18 29.30065 119.06947 36251 ft 391 kts 238°
2026-05-09 06:18 29.26403 119.02328 36251 ft 391 kts 238°
2026-05-09 06:19 29.22745 118.97724 36229 ft 389 kts 238°
2026-05-09 06:19 29.19115 118.93160 36241 ft 391 kts 238°
2026-05-09 06:20 29.15451 118.88560 36238 ft 390 kts 238°
2026-05-09 06:20 29.11794 118.83971 36248 ft 390 kts 238°
2026-05-09 06:21 29.08132 118.79389 36246 ft 390 kts 238°
2026-05-09 06:21 29.04474 118.74811 36235 ft 389 kts 238°
2026-05-09 06:22 29.00824 118.70243 36209 ft 389 kts 238°
2026-05-09 06:22 28.97162 118.65674 36236 ft 390 kts 238°
2026-05-09 06:23 28.93493 118.61109 36241 ft 389 kts 238°
2026-05-09 06:23 28.89839 118.56553 36242 ft 388 kts 238°
2026-05-09 06:24 28.86189 118.52006 36242 ft 388 kts 238°
2026-05-09 06:24 28.82536 118.47470 36201 ft 389 kts 238°
2026-05-09 06:25 28.78901 118.42956 36207 ft 388 kts 238°
2026-05-09 06:25 28.75242 118.38407 36210 ft 389 kts 238°
2026-05-09 06:26 28.71576 118.33865 36224 ft 390 kts 237°
2026-05-09 06:26 28.67900 118.29320 36237 ft 390 kts 237°
2026-05-09 06:27 28.64230 118.24784 36238 ft 389 kts 237°
2026-05-09 06:27 28.60556 118.20242 36206 ft 390 kts 237°
2026-05-09 06:28 28.56866 118.15695 36213 ft 391 kts 237°
2026-05-09 06:28 28.53172 118.11148 36222 ft 391 kts 237°
2026-05-09 06:29 28.49474 118.06599 36222 ft 392 kts 237°
2026-05-09 06:29 28.45776 118.02056 36225 ft 392 kts 237°
2026-05-09 06:30 28.42102 117.97541 36202 ft 392 kts 237°
2026-05-09 06:30 28.38358 117.93025 36208 ft 393 kts 236°
2026-05-09 06:31 28.34545 117.88553 36215 ft 394 kts 236°
2026-05-09 06:31 28.30732 117.84083 36219 ft 394 kts 236°
2026-05-09 06:32 28.26928 117.79602 36222 ft 394 kts 236°
2026-05-09 06:33 28.21228 117.72886 36225 ft 394 kts 236°
2026-05-09 06:33 28.17421 117.68421 36225 ft 394 kts 236°
2026-05-09 06:34 28.11707 117.61713 36225 ft 394 kts 236°
2026-05-09 06:34 28.07921 117.57275 36226 ft 394 kts 236°
2026-05-09 06:35 28.04109 117.52794 36225 ft 394 kts 236°
2026-05-09 06:35 28.00293 117.48328 36195 ft 396 kts 236°
2026-05-09 06:36 27.96459 117.43857 36201 ft 396 kts 235°
2026-05-09 06:36 27.92620 117.39366 36207 ft 397 kts 235°
2026-05-09 06:37 27.88783 117.34874 36198 ft 398 kts 235°
2026-05-09 06:37 27.84926 117.30382 36225 ft 398 kts 235°
2026-05-09 06:38 27.81064 117.25891 36232 ft 398 kts 235°
2026-05-09 06:38 27.77232 117.21428 36200 ft 398 kts 235°
2026-05-09 06:39 27.73375 117.16948 36218 ft 398 kts 235°
2026-05-09 06:39 27.69508 117.12470 36226 ft 398 kts 235°
2026-05-09 06:40 27.65642 117.07987 36230 ft 398 kts 235°
2026-05-09 06:40 27.61775 117.03504 36227 ft 398 kts 234°
2026-05-09 06:41 27.57912 116.99038 36185 ft 399 kts 234°
2026-05-09 06:41 27.54028 116.94548 36183 ft 400 kts 234°
2026-05-09 06:42 27.50156 116.90070 36184 ft 402 kts 234°
2026-05-09 06:42 27.46274 116.85525 36203 ft 403 kts 234°
2026-05-09 06:43 27.42392 116.80969 36214 ft 403 kts 234°
2026-05-09 06:43 27.38509 116.76422 36217 ft 403 kts 234°
2026-05-09 06:44 27.35272 116.72644 36188 ft 404 kts 234°
2026-05-09 06:44 27.31350 116.68072 36185 ft 407 kts 234°
2026-05-09 06:45 27.27404 116.63478 36186 ft 409 kts 234°
2026-05-09 06:45 27.23439 116.58871 36190 ft 410 kts 234°
2026-05-09 06:46 27.19477 116.54256 36192 ft 410 kts 234°
2026-05-09 06:46 27.15600 116.49568 36176 ft 409 kts 235°
2026-05-09 06:47 27.11773 116.44873 36177 ft 411 kts 235°
2026-05-09 06:47 27.07889 116.40142 36180 ft 413 kts 235°
2026-05-09 06:48 27.03976 116.35420 36181 ft 413 kts 235°
2026-05-09 06:48 27.00050 116.30692 36185 ft 414 kts 235°
2026-05-09 06:49 26.96118 116.25960 36193 ft 415 kts 235°
2026-05-09 06:49 26.92181 116.21226 36174 ft 416 kts 234°
2026-05-09 06:50 26.88252 116.16460 36176 ft 416 kts 235°
2026-05-09 06:50 26.84340 116.11668 36189 ft 417 kts 235°
2026-05-09 06:51 26.80436 116.06904 36191 ft 418 kts 235°
2026-05-09 06:51 26.76494 116.02127 36197 ft 418 kts 235°
2026-05-09 06:52 26.72550 115.97343 36207 ft 418 kts 235°
2026-05-09 06:52 26.68603 115.92565 36193 ft 418 kts 235°
2026-05-09 06:53 26.64661 115.87797 36216 ft 417 kts 235°
2026-05-09 06:53 26.60726 115.83030 36212 ft 417 kts 235°
2026-05-09 06:54 26.56790 115.78278 36214 ft 416 kts 235°
2026-05-09 06:54 26.52851 115.73533 36217 ft 416 kts 235°
2026-05-09 06:55 26.48945 115.68822 36188 ft 416 kts 235°
2026-05-09 06:55 26.45016 115.64085 36201 ft 416 kts 235°
2026-05-09 06:56 26.41090 115.59361 36209 ft 415 kts 235°
2026-05-09 06:56 26.37166 115.54648 36213 ft 415 kts 235°
2026-05-09 06:57 26.33232 115.49924 36213 ft 415 kts 235°
2026-05-09 06:57 26.29306 115.45215 36211 ft 415 kts 235°
2026-05-09 06:58 26.25382 115.40505 36189 ft 415 kts 234°
2026-05-09 06:58 26.21448 115.35800 36194 ft 415 kts 234°
2026-05-09 06:59 26.17499 115.31093 36195 ft 415 kts 234°
2026-05-09 06:59 26.13553 115.26385 36200 ft 415 kts 234°
2026-05-09 07:00 26.09616 115.21686 36203 ft 415 kts 235°
2026-05-09 07:00 26.05703 115.17007 36204 ft 415 kts 234°
2026-05-09 07:01 26.01733 115.12282 36209 ft 416 kts 234°
2026-05-09 07:01 25.97782 115.07590 36211 ft 416 kts 235°
2026-05-09 07:02 25.93849 115.02919 36214 ft 416 kts 234°
2026-05-09 07:02 25.89896 114.98232 36213 ft 416 kts 234°
2026-05-09 07:03 25.85943 114.93554 36211 ft 415 kts 234°
2026-05-09 07:03 25.81989 114.88870 36192 ft 415 kts 234°
2026-05-09 07:04 25.77513 114.84673 36188 ft 425 kts 226°
2026-05-09 07:04 25.72804 114.80686 36191 ft 425 kts 226°
2026-05-09 07:05 25.68106 114.76702 36194 ft 425 kts 226°
2026-05-09 07:05 25.63400 114.72710 36194 ft 426 kts 226°
2026-05-09 07:06 25.58690 114.68718 36194 ft 426 kts 226°
2026-05-09 07:06 25.53979 114.64730 36172 ft 427 kts 225°
2026-05-09 07:07 25.49252 114.60746 36190 ft 427 kts 225°
2026-05-09 07:07 25.44512 114.56755 36194 ft 428 kts 225°
2026-05-09 07:08 25.39807 114.52789 36198 ft 427 kts 225°
2026-05-09 07:08 25.35077 114.48799 36198 ft 428 kts 225°
2026-05-09 07:09 25.30331 114.44807 36182 ft 429 kts 225°
2026-05-09 07:09 25.25582 114.40825 36175 ft 429 kts 225°
2026-05-09 07:10 25.20818 114.36824 36176 ft 430 kts 225°
2026-05-09 07:10 25.16052 114.32824 36185 ft 430 kts 225°
2026-05-09 07:11 25.11233 114.28904 36187 ft 436 kts 219°
2026-05-09 07:11 25.08519 114.27412 36190 ft 447 kts 209°
2026-05-09 07:11 25.05493 114.26437 36167 ft 459 kts 199°
2026-05-09 07:12 24.99205 114.25090 36166 ft 461 kts 199°
2026-05-09 07:12 24.92904 114.23722 36172 ft 462 kts 200°
2026-05-09 07:13 24.86594 114.22339 36179 ft 462 kts 200°
2026-05-09 07:13 24.80320 114.20971 36187 ft 463 kts 200°
2026-05-09 07:14 24.73955 114.19587 36173 ft 464 kts 199°
2026-05-09 07:14 24.67664 114.18226 36173 ft 464 kts 199°
2026-05-09 07:15 24.61318 114.16851 36179 ft 464 kts 199°
2026-05-09 07:15 24.54973 114.15475 36182 ft 464 kts 199°
2026-05-09 07:16 24.48632 114.14105 36164 ft 464 kts 199°
2026-05-09 07:16 24.42290 114.12730 36167 ft 465 kts 199°
2026-05-09 07:17 24.35998 114.11177 36165 ft 457 kts 207°
2026-05-09 07:17 24.30421 114.08167 36169 ft 443 kts 218°
2026-05-09 07:18 24.25158 114.04654 36155 ft 442 kts 219°
2026-05-09 07:18 24.19974 114.01031 36162 ft 442 kts 220°
2026-05-09 07:19 24.14831 113.97411 36163 ft 443 kts 220°
2026-05-09 07:19 24.09625 113.93788 36168 ft 443 kts 219°
2026-05-09 07:20 24.04415 113.90179 36172 ft 443 kts 219°
2026-05-09 07:20 23.99197 113.86565 36168 ft 443 kts 219°
2026-05-09 07:21 23.93986 113.82951 36150 ft 443 kts 219°
2026-05-09 07:21 23.88773 113.79333 36153 ft 444 kts 219°
2026-05-09 07:22 23.83590 113.75748 36148 ft 444 kts 219°
2026-05-09 07:22 23.78365 113.72137 36151 ft 444 kts 219°
2026-05-09 07:23 23.73137 113.68528 36152 ft 444 kts 219°
2026-05-09 07:23 23.67898 113.64924 36130 ft 445 kts 219°
2026-05-09 07:24 23.62664 113.61305 36131 ft 445 kts 219°
2026-05-09 07:24 23.57426 113.57690 36123 ft 445 kts 219°
2026-05-09 07:25 23.52211 113.54037 36130 ft 445 kts 220°
2026-05-09 07:25 23.47015 113.50362 36141 ft 445 kts 220°
2026-05-09 07:26 23.41844 113.46726 36142 ft 445 kts 220°
2026-05-09 07:26 23.36624 113.43071 36131 ft 446 kts 220°
2026-05-09 07:27 23.31401 113.39413 36150 ft 446 kts 220°
2026-05-09 07:27 23.26184 113.35764 36147 ft 445 kts 220°
2026-05-09 07:28 23.20969 113.32123 36147 ft 445 kts 220°
2026-05-09 07:28 23.15757 113.28482 36120 ft 445 kts 219°
2026-05-09 07:29 23.10532 113.24833 36126 ft 446 kts 219°
2026-05-09 07:29 23.05932 113.20599 36121 ft 429 kts 238°
2026-05-09 07:30 23.04349 113.17898 36118 ft 420 kts 249°
2026-05-09 07:30 23.03323 113.14968 36122 ft 413 kts 259°
2026-05-09 07:30 23.02894 113.08852 36134 ft 406 kts 276°
2026-05-09 07:31 23.03331 113.02743 36121 ft 406 kts 276°
2026-05-09 07:31 23.03676 112.97656 36135 ft 406 kts 276°
2026-05-09 07:32 23.04092 112.91536 36126 ft 406 kts 276°
2026-05-09 07:32 23.04517 112.85414 36130 ft 406 kts 276°
2026-05-09 07:33 23.05142 112.76221 36136 ft 407 kts 276°
2026-05-09 07:34 23.05555 112.70087 36139 ft 407 kts 276°
2026-05-09 07:34 23.05975 112.63948 36135 ft 407 kts 276°
2026-05-09 07:35 23.06385 112.57855 36137 ft 408 kts 276°
2026-05-09 07:35 23.06793 112.51708 36138 ft 408 kts 276°
2026-05-09 07:36 23.06683 112.45549 36133 ft 410 kts 266°
2026-05-09 07:36 23.06035 112.39394 36133 ft 410 kts 266°
2026-05-09 07:37 23.05381 112.33235 36137 ft 411 kts 266°
2026-05-09 07:37 23.04740 112.27107 36119 ft 411 kts 266°
2026-05-09 07:38 23.04092 112.20933 36119 ft 412 kts 266°
2026-05-09 07:38 23.03435 112.14748 36114 ft 412 kts 266°
2026-05-09 07:39 23.02780 112.08566 36115 ft 412 kts 266°
2026-05-09 07:39 23.02118 112.02375 36118 ft 413 kts 266°
2026-05-09 07:40 23.01456 111.96173 36121 ft 413 kts 266°
2026-05-09 07:40 23.00799 111.90006 36119 ft 413 kts 266°
2026-05-09 07:41 23.00129 111.83813 36122 ft 414 kts 266°
2026-05-09 07:41 22.99455 111.77614 36122 ft 414 kts 266°
2026-05-09 07:42 22.98782 111.71410 36125 ft 414 kts 266°
2026-05-09 07:42 22.98104 111.65208 36127 ft 414 kts 266°
2026-05-09 07:43 22.97425 111.59006 36128 ft 414 kts 266°
2026-05-09 07:43 22.96737 111.52798 36127 ft 414 kts 265°
2026-05-09 07:44 22.96044 111.46592 36126 ft 414 kts 265°
2026-05-09 07:44 22.95344 111.40382 36125 ft 414 kts 265°
2026-05-09 07:45 22.94643 111.34181 36127 ft 414 kts 265°
2026-05-09 07:45 22.93949 111.28021 36126 ft 414 kts 265°
2026-05-09 07:46 22.93247 111.21825 36123 ft 414 kts 265°
2026-05-09 07:46 22.92540 111.15631 36123 ft 414 kts 265°
2026-05-09 07:47 22.91833 111.09431 36105 ft 414 kts 265°
2026-05-09 07:47 22.91121 111.03223 36101 ft 415 kts 265°
2026-05-09 07:48 22.90405 110.97006 36100 ft 415 kts 265°
2026-05-09 07:48 22.89685 110.90787 36103 ft 416 kts 265°
2026-05-09 07:49 22.88956 110.84558 36105 ft 416 kts 265°
2026-05-09 07:49 22.88236 110.78331 36114 ft 416 kts 265°
2026-05-09 07:50 22.87511 110.72134 36125 ft 416 kts 265°
2026-05-09 07:50 22.86778 110.65904 36124 ft 415 kts 265°
2026-05-09 07:51 22.86052 110.59692 36122 ft 415 kts 265°
2026-05-09 07:51 22.85326 110.53490 36119 ft 414 kts 265°
2026-05-09 07:52 22.84647 110.47292 36115 ft 414 kts 266°
2026-05-09 07:52 22.83988 110.41084 36122 ft 414 kts 266°
2026-05-09 07:53 22.83325 110.34929 36119 ft 414 kts 266°
2026-05-09 07:53 22.82648 110.28728 36117 ft 414 kts 266°
2026-05-09 07:54 22.81963 110.22539 36120 ft 413 kts 266°
2026-05-09 07:54 22.81282 110.16352 36120 ft 413 kts 266°
2026-05-09 07:55 22.80597 110.10163 36122 ft 414 kts 266°
2026-05-09 07:55 22.79904 110.03971 36122 ft 414 kts 266°
2026-05-09 07:56 22.79209 109.97776 36122 ft 413 kts 266°
2026-05-09 07:56 22.78517 109.91593 36124 ft 413 kts 266°
2026-05-09 07:57 22.77828 109.85398 36102 ft 414 kts 265°
2026-05-09 07:57 22.77131 109.79198 36113 ft 415 kts 265°
2026-05-09 07:58 22.76427 109.72982 36115 ft 416 kts 265°
2026-05-09 07:58 22.75724 109.66801 36118 ft 416 kts 265°
2026-05-09 07:59 22.75021 109.60583 36124 ft 416 kts 265°
2026-05-09 07:59 22.74313 109.54365 36126 ft 416 kts 265°
2026-05-09 08:00 22.73594 109.48141 36126 ft 416 kts 265°
2026-05-09 08:00 22.72872 109.41912 36128 ft 416 kts 265°
2026-05-09 08:01 22.72157 109.35685 36133 ft 417 kts 265°
2026-05-09 08:01 22.71440 109.29452 36132 ft 417 kts 265°
2026-05-09 08:02 22.70739 109.23222 36137 ft 416 kts 265°
2026-05-09 08:02 22.70049 109.17036 36136 ft 416 kts 265°
2026-05-09 08:03 22.69342 109.10809 36142 ft 416 kts 265°
2026-05-09 08:03 22.68654 109.04584 36143 ft 416 kts 265°
2026-05-09 08:04 22.67980 108.98365 36149 ft 417 kts 265°
2026-05-09 08:04 22.67291 108.92143 36141 ft 415 kts 265°
2026-05-09 08:05 22.66602 108.85932 36140 ft 415 kts 265°
2026-05-09 08:05 22.65915 108.79719 36144 ft 415 kts 265°
2026-05-09 08:06 22.65226 108.73507 36148 ft 415 kts 265°
2026-05-09 08:06 22.64535 108.67300 36151 ft 415 kts 265°
2026-05-09 08:07 22.63846 108.61139 36151 ft 414 kts 265°
2026-05-09 08:07 22.63152 108.54943 36129 ft 416 kts 265°
2026-05-09 08:08 22.62450 108.48719 36136 ft 417 kts 265°
2026-05-09 08:08 22.61744 108.42486 36157 ft 417 kts 265°
2026-05-09 08:09 22.61034 108.36252 36167 ft 417 kts 265°
2026-05-09 08:09 22.60320 108.30014 36176 ft 417 kts 264°
2026-05-09 08:10 22.59605 108.23781 36180 ft 417 kts 265°
2026-05-09 08:10 22.58893 108.17562 36180 ft 417 kts 265°
2026-05-09 08:11 22.58082 108.11377 36180 ft 418 kts 262°
2026-05-09 08:11 22.56969 108.05193 36153 ft 418 kts 261°
2026-05-09 08:12 22.55227 107.95937 36153 ft 418 kts 261°
2026-05-09 08:12 22.54131 107.89763 36153 ft 418 kts 261°
2026-05-09 08:13 22.53050 107.83582 36154 ft 418 kts 261°
2026-05-09 08:13 22.51953 107.77407 36155 ft 418 kts 261°
2026-05-09 08:14 22.50850 107.71236 36153 ft 418 kts 261°
2026-05-09 08:14 22.49755 107.65067 36155 ft 417 kts 261°
2026-05-09 08:15 22.48658 107.58902 36159 ft 417 kts 261°
2026-05-09 08:15 22.47546 107.52738 36158 ft 417 kts 261°
2026-05-09 08:16 22.46442 107.46625 36158 ft 417 kts 261°
2026-05-09 08:16 22.45335 107.40466 36134 ft 418 kts 261°
2026-05-09 08:17 22.44222 107.34273 36123 ft 421 kts 260°
2026-05-09 08:17 22.43093 107.28055 36120 ft 422 kts 260°
2026-05-09 08:18 22.41965 107.21812 36123 ft 423 kts 260°
2026-05-09 08:18 22.41035 107.16612 36127 ft 424 kts 260°
2026-05-09 08:19 22.39914 107.10356 36133 ft 424 kts 260°
2026-05-09 08:19 22.38792 107.04090 36142 ft 425 kts 260°
2026-05-09 08:20 22.37665 106.97829 36151 ft 425 kts 260°
2026-05-09 08:20 22.36523 106.91564 36153 ft 425 kts 257°
2026-05-09 08:21 22.34171 106.85716 36155 ft 429 kts 238°
2026-05-09 08:21 22.30137 106.80927 36151 ft 434 kts 228°
2026-05-09 08:22 22.25837 106.76359 36154 ft 434 kts 228°
2026-05-09 08:22 22.21536 106.71790 36140 ft 434 kts 228°
2026-05-09 08:23 22.17191 106.67237 36126 ft 437 kts 224°
2026-05-09 08:23 22.12458 106.63101 36004 ft 438 kts 223°
2026-05-09 08:24 22.07712 106.58966 36035 ft 439 kts 223°
2026-05-09 08:24 22.02959 106.54814 36036 ft 439 kts 223°
2026-05-09 08:25 21.98211 106.50674 36031 ft 439 kts 223°
2026-05-09 08:25 21.93493 106.46559 36025 ft 439 kts 222°
2026-05-09 08:26 21.88761 106.42391 36019 ft 440 kts 223°
2026-05-09 08:26 21.84011 106.38207 36008 ft 441 kts 222°
2026-05-09 08:27 21.79254 106.34030 36006 ft 442 kts 222°
2026-05-09 08:27 21.74485 106.29863 36009 ft 441 kts 222°
2026-05-09 08:28 21.69718 106.25691 36015 ft 441 kts 222°
2026-05-09 08:28 21.64963 106.21523 36018 ft 441 kts 222°
2026-05-09 08:29 21.60198 106.17356 36000 ft 442 kts 222°
2026-05-09 08:29 21.55429 106.13191 36002 ft 442 kts 222°
2026-05-09 08:30 21.50657 106.09028 35999 ft 442 kts 222°
2026-05-09 08:30 21.45879 106.04870 35999 ft 442 kts 222°
2026-05-09 08:31 21.41106 106.00704 35998 ft 442 kts 222°
2026-05-09 08:31 21.36344 105.96559 35988 ft 442 kts 222°
2026-05-09 08:32 21.31565 105.92398 35993 ft 442 kts 222°
2026-05-09 08:33 21.24407 105.86134 35995 ft 441 kts 226°
2026-05-09 08:33 21.20689 105.81062 35994 ft 434 kts 244°
2026-05-09 08:34 21.18484 105.75094 35994 ft 432 kts 252°
2026-05-09 08:34 21.16458 105.69040 35993 ft 432 kts 252°
2026-05-09 08:35 21.14416 105.62989 35986 ft 432 kts 251°
2026-05-09 08:35 21.12366 105.56927 35990 ft 432 kts 251°
2026-05-09 08:36 21.10318 105.50863 35992 ft 432 kts 251°
2026-05-09 08:36 21.08284 105.44815 35988 ft 433 kts 251°
2026-05-09 08:37 21.06234 105.38737 35992 ft 433 kts 251°
2026-05-09 08:37 21.04182 105.32678 35999 ft 433 kts 251°
2026-05-09 08:38 21.02134 105.26645 35999 ft 434 kts 251°
2026-05-09 08:38 21.00070 105.20578 36007 ft 434 kts 251°
2026-05-09 08:39 20.98001 105.14496 36013 ft 434 kts 251°
2026-05-09 08:39 20.95937 105.08421 36014 ft 435 kts 251°
2026-05-09 08:40 20.93869 105.02337 36021 ft 435 kts 251°
2026-05-09 08:40 20.91792 104.96249 36025 ft 435 kts 251°
2026-05-09 08:41 20.89704 104.90173 36026 ft 436 kts 250°
2026-05-09 08:41 20.87615 104.84068 36031 ft 436 kts 250°
2026-05-09 08:42 20.85547 104.78008 36035 ft 436 kts 250°
2026-05-09 08:42 20.83162 104.72055 36036 ft 437 kts 239°
2026-05-09 08:43 20.79119 104.67180 36011 ft 443 kts 219°
2026-05-09 08:43 20.74104 104.63314 36003 ft 445 kts 218°
2026-05-09 08:44 20.69078 104.59438 36007 ft 446 kts 218°
2026-05-09 08:44 20.64046 104.55551 36004 ft 446 kts 218°
2026-05-09 08:45 20.59006 104.51670 36005 ft 446 kts 218°
2026-05-09 08:45 20.53963 104.47784 35999 ft 447 kts 218°
2026-05-09 08:46 20.48911 104.43902 35987 ft 448 kts 218°
2026-05-09 08:46 20.43871 104.40029 35988 ft 449 kts 218°
2026-05-09 08:47 20.38809 104.36094 35991 ft 450 kts 219°
2026-05-09 08:47 20.33772 104.32118 35997 ft 450 kts 219°
2026-05-09 08:48 20.28729 104.28143 36002 ft 451 kts 219°
2026-05-09 08:48 20.23677 104.24180 36002 ft 451 kts 219°
2026-05-09 08:49 20.18617 104.20223 35997 ft 451 kts 218°
2026-05-09 08:49 20.13593 104.16297 36003 ft 451 kts 218°
2026-05-09 08:50 20.08539 104.12349 36007 ft 451 kts 218°
2026-05-09 08:50 20.03489 104.08401 36000 ft 450 kts 218°
2026-05-09 08:51 19.98428 104.04449 35995 ft 451 kts 218°
2026-05-09 08:51 19.93364 104.00515 35994 ft 450 kts 218°
2026-05-09 08:52 19.88302 103.96577 35975 ft 451 kts 219°
2026-05-09 08:52 19.83267 103.92652 35963 ft 452 kts 219°
2026-05-09 08:53 19.78191 103.88695 35968 ft 452 kts 218°
2026-05-09 08:53 19.73102 103.84739 35975 ft 452 kts 218°
2026-05-09 08:54 19.68027 103.80783 35978 ft 453 kts 219°
2026-05-09 08:54 19.62945 103.76829 35979 ft 453 kts 218°
2026-05-09 08:55 19.57854 103.72889 35975 ft 453 kts 218°
2026-05-09 08:55 19.52787 103.68970 35976 ft 453 kts 218°
2026-05-09 08:56 19.47693 103.65029 35980 ft 453 kts 218°
2026-05-09 08:56 19.42592 103.61080 35974 ft 454 kts 218°
2026-05-09 08:57 19.37473 103.57163 35978 ft 454 kts 218°
2026-05-09 08:57 19.32328 103.53284 35980 ft 454 kts 217°
2026-05-09 08:58 19.27179 103.49404 35952 ft 455 kts 217°
2026-05-09 08:58 19.22025 103.45508 35955 ft 455 kts 217°
2026-05-09 08:58 19.19447 103.43555 35853 ft 456 kts 217°
2026-05-09 08:59 19.16874 103.41608 35541 ft 452 kts 217°
2026-05-09 08:59 19.14321 103.39680 35296 ft 449 kts 217°
2026-05-09 08:59 19.11774 103.37757 34918 ft 449 kts 217°
2026-05-09 08:59 19.09220 103.35827 34146 ft 452 kts 217°
2026-05-09 09:00 19.06691 103.33921 33878 ft 441 kts 217°
2026-05-09 09:00 19.04208 103.32053 33422 ft 435 kts 217°
2026-05-09 09:00 19.01752 103.30207 32914 ft 431 kts 217°
2026-05-09 09:00 18.99351 103.28402 32415 ft 427 kts 217°
2026-05-09 09:01 18.96939 103.26587 31909 ft 424 kts 217°
2026-05-09 09:01 18.94545 103.24782 31407 ft 421 kts 216°
2026-05-09 09:01 18.92168 103.22988 30917 ft 418 kts 216°
2026-05-09 09:01 18.89809 103.21207 30434 ft 415 kts 216°
2026-05-09 09:02 18.87474 103.19445 29827 ft 409 kts 216°
2026-05-09 09:02 18.85176 103.17713 28914 ft 404 kts 216°
2026-05-09 09:02 18.83657 103.16570 28340 ft 401 kts 216°
2026-05-09 09:02 18.81399 103.14869 27526 ft 395 kts 216°
2026-05-09 09:03 18.79176 103.13199 26737 ft 390 kts 216°
2026-05-09 09:03 18.76980 103.11556 25969 ft 384 kts 216°
2026-05-09 09:03 18.74814 103.09934 25221 ft 379 kts 216°
2026-05-09 09:03 18.71990 103.07818 24253 ft 372 kts 215°
2026-05-09 09:04 18.69928 103.06202 23558 ft 368 kts 220°
2026-05-09 09:04 18.68668 103.04963 23005 ft 364 kts 226°
2026-05-09 09:04 18.67059 103.02922 22200 ft 360 kts 233°
2026-05-09 09:04 18.65603 103.00795 21434 ft 355 kts 233°
2026-05-09 09:05 18.64161 102.98705 20714 ft 349 kts 233°
2026-05-09 09:05 18.62742 102.96655 20013 ft 344 kts 232°
2026-05-09 09:05 18.61350 102.94655 19333 ft 340 kts 232°
2026-05-09 09:05 18.59962 102.92664 18635 ft 335 kts 232°
2026-05-09 09:06 18.58593 102.90694 17947 ft 331 kts 232°
2026-05-09 09:06 18.57239 102.88739 17203 ft 327 kts 232°
2026-05-09 09:06 18.55906 102.86812 16465 ft 324 kts 232°
2026-05-09 09:06 18.54579 102.84897 15769 ft 321 kts 232°
2026-05-09 09:07 18.53266 102.83005 15046 ft 318 kts 232°
2026-05-09 09:07 18.51963 102.81124 14339 ft 317 kts 232°
2026-05-09 09:07 18.50668 102.79254 13720 ft 314 kts 232°
2026-05-09 09:07 18.49397 102.77422 13015 ft 312 kts 232°
2026-05-09 09:08 18.48127 102.75589 12315 ft 309 kts 232°
2026-05-09 09:08 18.46863 102.73767 11612 ft 306 kts 232°
2026-05-09 09:08 18.45613 102.71967 11083 ft 302 kts 232°
2026-05-09 09:08 18.44363 102.70168 10999 ft 306 kts 232°
2026-05-09 09:09 18.42982 102.68471 10873 ft 305 kts 224°
2026-05-09 09:09 18.41487 102.66899 10730 ft 300 kts 224°
2026-05-09 09:09 18.40062 102.65396 10583 ft 279 kts 224°
2026-05-09 09:09 18.38725 102.63985 10293 ft 268 kts 224°
2026-05-09 09:10 18.37406 102.62591 10066 ft 268 kts 224°
2026-05-09 09:10 18.36096 102.61205 9892 ft 267 kts 224°
2026-05-09 09:10 18.34800 102.59836 9784 ft 259 kts 224°
2026-05-09 09:10 18.33539 102.58505 9673 ft 255 kts 224°
2026-05-09 09:11 18.32285 102.57183 9438 ft 256 kts 224°
2026-05-09 09:11 18.31032 102.55861 8882 ft 254 kts 224°
2026-05-09 09:11 18.29786 102.54545 8358 ft 252 kts 223°
2026-05-09 09:11 18.28551 102.53245 7826 ft 250 kts 224°
2026-05-09 09:12 18.27323 102.51951 7320 ft 249 kts 224°
2026-05-09 09:12 18.26098 102.50660 6808 ft 248 kts 223°
2026-05-09 09:12 18.24901 102.49397 6495 ft 238 kts 223°
2026-05-09 09:12 18.23741 102.48172 6069 ft 235 kts 224°
2026-05-09 09:13 18.22594 102.46960 5579 ft 233 kts 223°
2026-05-09 09:13 18.21469 102.45772 5126 ft 231 kts 223°
2026-05-09 09:13 18.20333 102.44572 4903 ft 231 kts 223°
2026-05-09 09:13 18.19195 102.43376 4758 ft 228 kts 223°
2026-05-09 09:14 18.18112 102.42252 4658 ft 208 kts 218°
2026-05-09 09:14 18.16936 102.41462 4418 ft 196 kts 200°
2026-05-09 09:14 18.15631 102.41119 4291 ft 193 kts 183°
2026-05-09 09:14 18.14305 102.41209 4135 ft 190 kts 166°
2026-05-09 09:15 18.13085 102.41715 3954 ft 189 kts 148°
2026-05-09 09:15 18.12078 102.42577 3732 ft 187 kts 134°
2026-05-09 09:15 18.11150 102.43542 3506 ft 187 kts 134°
2026-05-09 09:15 18.10232 102.44497 3278 ft 188 kts 135°
2026-05-09 09:16 18.09300 102.45465 3034 ft 189 kts 135°
2026-05-09 09:16 18.07442 102.47393 2569 ft 181 kts 136°
2026-05-09 09:16 18.06596 102.48271 2333 ft 161 kts 135°
2026-05-09 09:17 18.05837 102.49059 2137 ft 147 kts 134°
2026-05-09 09:17 18.05134 102.49788 1959 ft 138 kts 134°
2026-05-09 09:17 18.04446 102.50502 1787 ft 139 kts 135°
2026-05-09 09:17 18.03757 102.51217 1612 ft 137 kts 134°
2026-05-09 09:18 18.03064 102.51922 1458 ft 140 kts 136°
2026-05-09 09:18 18.02379 102.52628 1309 ft 136 kts 135°
2026-05-09 09:18 18.01715 102.53339 1105 ft 137 kts 136°
2026-05-09 09:18 18.01034 102.54038 950 ft 136 kts 135°
2026-05-09 09:19 18.00360 102.54740 787 ft 138 kts 135°
2026-05-09 09:19 17.99684 102.55442 603 ft 135 kts 135°
2026-05-09 09:19 17.99088 102.56059 571 ft 95 kts 135°
2026-05-09 09:19 17.98738 102.56419 567 ft 51 kts 135°
2026-05-09 09:20 17.98515 102.56650 571 ft 39 kts 136°
2026-05-09 09:20 17.98359 102.56808 567 ft 28 kts 136°
2026-05-09 09:20 17.98184 102.56890 566 ft 29 kts 165°
2026-05-09 09:20 17.98005 102.56938 569 ft 24 kts 165°
2026-05-09 09:21 17.97848 102.56982 569 ft 20 kts 165°
2026-05-09 09:21 17.97759 102.56947 562 ft 11 kts 234°
2026-05-09 09:21 17.97717 102.56887 562 ft 10 kts 245°
2026-05-09 09:21 17.97682 102.56836 562 ft 8 kts 225°
2026-05-09 09:22 17.97671 102.56824 564 ft 0 kts 225°